[[{"header":{"parameterUnit":"m.s-1","parameterCategory":1,"la1":30.2991,"la2":30.254,"lo1":-89.0895,"lo2":-89.0444,"dy":0.0017,"dx":0.0017,"nx":28,"ny":28,"refTime":"2024-04-17T09:00:00:Z","depth":0,"parameterNumber":2,"parameterNumberName":"U-component_of_WINDS"},"data":[0,0,0,0,0,0,0,0,0,0,0,0,0,0,0,0,0,0,0,0,0,0,0,0,0,0,0,0,0,0,0,0,0,0,0,0,0,0,0,0,0,0,0,0,0,0,0,0,0,0,0,0,0,0,0,0,0,0,-2.3216,-2.3217,0,-2.3273,-2.3274,-2.3274,-2.3282,-2.3282,-2.3281,-2.3281,-2.3337,-2.3339,-2.3341,0,0,0,0,0,0,0,0,0,0,0,0,0,-2.3113,-2.3115,-2.3216,-2.3217,-2.3217,-2.3273,-2.3274,-2.3274,-2.3282,-2.3282,-2.3281,-2.3281,-2.3337,-2.3339,-2.3341,0,0,0,0,0,0,0,0,0,0,0,0,0,-2.3163,-2.3116,-2.3216,-2.3228,-2.323,-2.3273,-2.3274,-2.3275,-2.3283,-2.3282,-2.3281,-2.328,-2.3336,-2.3339,-2.3342,-2.3376,0,0,-2.3351,-2.3352,0,0,0,0,0,0,0,0,-2.316,-2.3167,-2.3226,-2.3227,-2.3229,-2.327,-2.3258,-2.3308,-2.3283,-2.3262,-2.3281,-2.328,-2.3315,-2.332,-2.3332,-2.3378,-2.3381,-2.3351,-2.3353,-2.3354,-2.3355,0,0,0,0,0,0,0,-2.3157,-2.3164,-2.3238,-2.3226,-2.3229,-2.3231,-2.3237,-2.3268,-2.3293,-2.3264,-2.3265,-2.3272,-2.3316,-2.3329,-2.3334,-2.3382,-2.3351,-2.3354,-2.3356,-2.3357,-2.3459,-2.346,0,0,0,0,0,0,-2.3151,-2.3161,-2.3237,-2.324,-2.3192,-2.3233,-2.324,-2.3258,-2.3292,-2.3297,-2.3272,-2.3272,-2.3325,-2.333,-2.3336,-2.3378,-2.3354,-2.3357,-2.3359,-2.3458,-2.3459,-2.346,0,0,0,0,0,0,-2.3149,-2.3158,-2.3234,-2.3201,-2.3211,-2.3236,-2.3255,-2.3259,-2.3272,-2.3298,-2.3303,-2.3281,-2.3324,-2.3332,-2.3366,-2.338,-2.3358,-2.3361,-2.3457,-2.3459,-2.346,-2.3462,0,0,0,0,0,0,-2.3146,-2.3157,-2.317,-2.3201,-2.3213,-2.3264,-2.3256,-2.3261,-2.3278,-2.3278,-2.3308,-2.3312,-2.3324,-2.3362,-2.3369,-2.3384,-2.3363,-2.3456,-2.3458,-2.3459,-2.3461,-2.3463,-2.3465,0,0,0,0,0,-2.3142,-2.3168,-2.3171,-2.318,-2.323,-2.3265,-2.3271,-2.3285,-2.3279,-2.3292,-2.3309,-2.3311,-2.3378,-2.3365,-2.3373,-2.3389,-2.3455,-2.3457,-2.3459,-2.346,-2.3463,-2.3465,0,0,0,0,0,0,-2.3137,-2.3172,-2.3176,-2.3212,-2.3236,-2.3266,-2.3283,-2.3288,-2.3313,-2.3311,-2.3327,-2.3334,-2.3368,-2.3382,-2.3367,-2.3424,-2.3416,-2.342,-2.3413,-2.3416,-2.3419,-2.3414,-2.3366,0,0,0,0,0,-2.314,-2.3166,-2.3195,-2.3225,-2.3236,-2.3258,-2.3273,-2.3282,-2.3307,-2.3316,-2.3336,-2.3359,-2.3385,-2.3402,-2.3427,-2.3464,-2.347,-2.3479,-2.3481,-2.3483,-2.3485,-2.3506,-2.351,-2.3467,-2.3467,-2.3467,0,0,-2.3146,-2.3169,-2.3184,-2.3224,-2.3243,-2.3269,-2.3266,-2.3293,-2.3312,-2.332,-2.3354,-2.3369,-2.3396,-2.3432,-2.3449,-2.3445,-2.3499,-2.3486,-2.3487,-2.3488,-2.3508,-2.3512,-2.3516,-2.3469,-2.3468,-2.3468,0,0,-2.3171,-2.3191,-2.3218,-2.3238,-2.3267,-2.3281,-2.3288,-2.3318,-2.3329,-2.3363,-2.337,-2.3393,-2.3438,-2.3457,-2.3472,-2.3506,-2.3509,-2.3514,-2.3526,-2.3546,-2.3549,-2.3552,-2.3563,-2.3567,-2.3517,-2.3517,-2.3517,0,-2.3175,-2.3215,-2.3231,-2.3259,-2.3276,-2.3286,-2.3313,-2.3331,-2.3367,-2.3378,-2.3374,-2.3431,-2.345,-2.349,-2.3499,-2.3511,-2.3519,-2.351,-2.3547,-2.355,-2.3554,-2.3565,-2.3569,-2.3518,-2.3518,-2.3518,-2.3518,0,-2.3218,-2.3246,-2.3264,-2.3299,-2.3319,-2.3346,-2.3366,-2.3384,-2.3392,-2.3407,-2.3442,-2.3466,-2.3496,-2.3507,-2.3514,-2.3548,-2.3545,-2.3544,-2.3536,-2.3558,-2.3568,-2.3573,-2.3518,-2.3518,-2.3518,-2.3518,0,0,-2.3239,-2.3284,-2.329,-2.3307,-2.3341,-2.3362,-2.339,-2.3421,-2.3436,-2.3461,-2.3484,-2.3523,-2.3522,-2.354,-2.355,-2.3568,-2.3593,-2.3565,-2.3565,-2.3568,-2.3631,-2.3631,-2.3636,-2.3596,-2.3597,-2.3597,-2.3629,0,-2.3267,-2.3317,-2.3333,-2.3375,-2.34,-2.3411,-2.3436,-2.3459,-2.3474,-2.3498,-2.3515,-2.3541,-2.3539,-2.355,-2.3568,-2.3586,-2.3605,-2.3584,-2.3617,-2.3618,-2.3608,-2.3641,-2.3641,-2.3669,-2.3633,-2.3634,-2.3634,0,-2.3306,-2.3332,-2.3376,-2.3408,-2.3419,-2.3441,-2.3471,-2.3494,-2.3521,-2.353,-2.3551,-2.356,-2.359,-2.3581,-2.3622,-2.3607,-2.3622,-2.3633,-2.3635,-2.3637,-2.3626,-2.3643,-2.3678,-2.3682,-2.3641,-2.3641,-2.364,0,-2.3315,-2.3362,-2.3395,-2.3409,-2.3446,-2.3461,-2.3477,-2.3504,-2.3522,-2.3548,-2.3559,-2.3589,-2.3604,-2.3627,-2.3644,-2.3636,-2.3683,-2.3676,-2.3691,-2.3691,-2.3699,-2.3698,-2.3736,-2.3711,-2.3711,-2.3711,-2.3711,0,-2.3344,-2.337,-2.34,-2.3419,-2.345,-2.3469,-2.3498,-2.3515,-2.3538,-2.3562,-2.3573,-2.3595,-2.3616,-2.3641,-2.3655,-2.3686,-2.3693,-2.3702,-2.3705,-2.37,-2.3699,-2.3708,-2.3706,-2.3712,-2.3712,-2.3712,-2.3711,0,-2.3358,-2.3379,-2.3416,-2.3449,-2.3458,-2.3479,-2.3507,-2.3527,-2.3544,-2.3573,-2.3581,-2.3607,-2.3636,-2.3656,-2.3694,-2.3703,-2.3737,-2.374,-2.3728,-2.3729,-2.3743,-2.3741,-2.3787,-2.3794,-2.3766,-2.3766,-2.3766,0,-2.3374,-2.3395,-2.3431,-2.3448,-2.3465,-2.3492,-2.351,-2.353,-2.3549,-2.3582,-2.3598,-2.3628,-2.3653,-2.37,-2.3722,-2.3751,-2.3754,-2.3769,-2.3759,-2.3753,-2.3753,-2.3751,-2.3753,-2.377,-2.377,-2.377,-2.377,0,-2.3401,-2.341,-2.3437,-2.3467,-2.3489,-2.3514,-2.3538,-2.3552,-2.3576,-2.3596,-2.3627,-2.3647,-2.3686,-2.3716,-2.3748,-2.3764,-2.3771,-2.3774,-2.3779,-2.3773,-2.3765,-2.3768,-2.373,-2.3772,-2.3772,-2.3772,-2.3772,-2.3771,-2.3416,-2.3435,-2.3463,-2.3493,-2.3514,-2.3537,-2.3557,-2.3577,-2.3603,-2.3637,-2.3647,-2.3679,-2.3707,-2.375,-2.3767,-2.3793,-2.3791,-2.3798,-2.38,-2.3801,-2.3801,-2.3762,-2.3798,-2.3798,-2.3798,-2.3798,-2.3798,0,-2.3442,-2.3461,-2.3488,-2.3522,-2.3546,-2.3552,-2.358,-2.3598,-2.3627,-2.3652,-2.3677,-2.3713,-2.3743,-2.3768,-2.3798,-2.3814,-2.3818,-2.3821,-2.3819,-2.3823,-2.3801,-2.3793,-2.3817,-2.3817,-2.3817,-2.3817,-2.3817,-2.3817,-2.3458,-2.349,-2.3503,-2.3547,-2.3566,-2.3598,-2.3613,-2.3635,-2.3655,-2.3695,-2.372,-2.3736,-2.3761,-2.3794,-2.3822,-2.3829,-2.3839,-2.3841,-2.3848,-2.3827,-2.3824,-2.3822,-2.3815,-2.3844,-2.3844,-2.3868,-2.3869,-2.3869]},{"header":{"parameterUnit":"m.s-1","parameterCategory":1,"la1":30.2991,"la2":30.254,"lo1":-89.0895,"lo2":-89.0444,"dy":0.0017,"dx":0.0017,"nx":28,"ny":28,"refTime":"2024-04-17T09:00:00:Z","depth":0,"parameterNumber":3,"parameterNumberName":"V-component_of_WINDS"},"data":[0,0,0,0,0,0,0,0,0,0,0,0,0,0,0,0,0,0,0,0,0,0,0,0,0,0,0,0,0,0,0,0,0,0,0,0,0,0,0,0,0,0,0,0,0,0,0,0,0,0,0,0,0,0,0,0,0,0,1.6298,1.6299,0,1.6347,1.6348,1.6348,1.6381,1.6381,1.6381,1.6381,1.643,1.6431,1.6432,0,0,0,0,0,0,0,0,0,0,0,0,0,1.6232,1.6233,1.6298,1.6299,1.6299,1.6347,1.6348,1.6349,1.6381,1.6381,1.6381,1.6382,1.643,1.6431,1.6432,0,0,0,0,0,0,0,0,0,0,0,0,0,1.6269,1.6233,1.6298,1.6321,1.6324,1.6347,1.6348,1.6349,1.6381,1.6381,1.6381,1.6382,1.6429,1.6431,1.6433,1.6436,0,0,1.6438,1.6438,0,0,0,0,0,0,0,0,1.6267,1.6271,1.6317,1.632,1.6322,1.6358,1.6343,1.6378,1.6381,1.6359,1.6381,1.6382,1.6406,1.6409,1.6418,1.6438,1.6441,1.6438,1.6439,1.6439,1.644,0,0,0,0,0,0,0,1.6264,1.6269,1.6317,1.6318,1.6321,1.6329,1.6335,1.6349,1.638,1.6361,1.6363,1.6369,1.6407,1.6416,1.6419,1.6441,1.6438,1.6439,1.644,1.6441,1.647,1.647,0,0,0,0,0,0,1.6258,1.6267,1.6316,1.6319,1.6295,1.633,1.6336,1.6346,1.638,1.6385,1.6369,1.637,1.6413,1.6417,1.6421,1.6429,1.6439,1.6441,1.6442,1.647,1.647,1.647,0,0,0,0,0,0,1.6256,1.6262,1.6314,1.6294,1.6301,1.6331,1.6342,1.6347,1.6356,1.6386,1.6391,1.6372,1.6414,1.6419,1.6433,1.6431,1.6442,1.6443,1.6471,1.647,1.647,1.6444,0,0,0,0,0,0,1.6254,1.6261,1.6263,1.6293,1.6302,1.6325,1.6342,1.6348,1.6359,1.6362,1.639,1.6395,1.6414,1.643,1.6435,1.6434,1.6444,1.6471,1.647,1.647,1.6446,1.6443,1.6441,0,0,0,0,0,1.6252,1.6252,1.6262,1.6268,1.6304,1.6325,1.6329,1.6352,1.6359,1.6361,1.638,1.6395,1.6431,1.6432,1.6437,1.6436,1.6471,1.6471,1.647,1.6447,1.6444,1.6441,0,0,0,0,0,0,1.6219,1.6257,1.6268,1.6279,1.6299,1.633,1.6333,1.6348,1.6365,1.6366,1.6393,1.6399,1.6411,1.6425,1.6425,1.6443,1.6453,1.6453,1.6433,1.6431,1.6429,1.6425,1.6446,0,0,0,0,0,1.6214,1.6227,1.6259,1.6265,1.6275,1.6302,1.6312,1.6328,1.6349,1.6357,1.6377,1.6396,1.6413,1.6423,1.6439,1.6448,1.6456,1.6451,1.6448,1.6447,1.6447,1.6455,1.6453,1.6468,1.6468,1.6468,0,0,1.6201,1.6224,1.623,1.626,1.6276,1.629,1.6309,1.6322,1.6333,1.6358,1.6374,1.6389,1.6413,1.6425,1.6432,1.6437,1.6444,1.6446,1.6444,1.6445,1.6454,1.6453,1.6451,1.6468,1.6468,1.6468,0,0,1.6187,1.6204,1.6213,1.623,1.6256,1.6275,1.6277,1.6307,1.6319,1.6335,1.6355,1.6368,1.6395,1.6411,1.6423,1.6418,1.6432,1.6423,1.6411,1.6419,1.6418,1.6417,1.6416,1.6415,1.6423,1.6423,1.6423,0,1.6168,1.619,1.6215,1.6228,1.6241,1.6266,1.6276,1.6291,1.632,1.6329,1.6335,1.6371,1.6389,1.6406,1.6405,1.6414,1.6418,1.6419,1.6416,1.6415,1.6415,1.6414,1.6414,1.6421,1.6421,1.6422,1.6422,0,1.6166,1.6181,1.6185,1.6215,1.6228,1.6239,1.6266,1.6277,1.6292,1.631,1.6327,1.635,1.6372,1.6377,1.6391,1.6398,1.6401,1.6411,1.6421,1.6412,1.6412,1.6412,1.6419,1.642,1.642,1.6421,0,0,1.613,1.6176,1.6177,1.6192,1.6224,1.6236,1.6249,1.6272,1.6281,1.6301,1.6313,1.6336,1.6347,1.6361,1.6378,1.6384,1.638,1.6394,1.6395,1.6392,1.639,1.6382,1.6382,1.639,1.639,1.639,1.6388,0,1.6121,1.6146,1.617,1.6186,1.6201,1.6227,1.6239,1.626,1.6278,1.6293,1.6313,1.633,1.6342,1.6351,1.6358,1.6379,1.638,1.638,1.6402,1.6402,1.6395,1.6382,1.6373,1.637,1.6389,1.6389,1.6389,0,1.6113,1.6134,1.6152,1.6185,1.6192,1.6201,1.6226,1.624,1.6265,1.6278,1.6295,1.6313,1.6329,1.6338,1.636,1.6359,1.637,1.6382,1.6382,1.6385,1.6395,1.6385,1.6369,1.6369,1.6389,1.6389,1.6389,0,1.6086,1.6119,1.6134,1.6146,1.6184,1.6191,1.6207,1.6233,1.6246,1.6267,1.6276,1.6298,1.6311,1.6328,1.6352,1.6356,1.6372,1.6383,1.6384,1.6383,1.6386,1.6385,1.6372,1.6392,1.6392,1.6392,1.6392,0,1.6073,1.6084,1.6124,1.6133,1.6146,1.6174,1.6186,1.6204,1.6227,1.6242,1.6265,1.6278,1.6309,1.6325,1.6345,1.6361,1.6366,1.6377,1.6382,1.6375,1.6374,1.6383,1.6384,1.6392,1.6392,1.6392,1.6392,0,1.6046,1.6073,1.6092,1.6127,1.6137,1.6145,1.6175,1.6186,1.6206,1.6224,1.623,1.6261,1.6282,1.6308,1.6337,1.635,1.6365,1.6372,1.6357,1.636,1.6359,1.6359,1.6352,1.6353,1.6371,1.6371,1.637,0,1.6036,1.6045,1.6082,1.6094,1.611,1.6128,1.6142,1.6171,1.6184,1.6215,1.6222,1.6246,1.6266,1.6298,1.6324,1.6346,1.6355,1.6351,1.6358,1.6352,1.6356,1.6355,1.6357,1.6348,1.6348,1.6348,1.6348,0,1.6016,1.6029,1.6049,1.6074,1.6091,1.6112,1.6133,1.6142,1.6175,1.6189,1.6212,1.6228,1.6259,1.6282,1.6308,1.6325,1.6342,1.6345,1.6347,1.634,1.6331,1.6337,1.6352,1.6345,1.6345,1.6346,1.6346,1.6346,1.5997,1.6007,1.6036,1.6057,1.6077,1.6098,1.611,1.6133,1.6153,1.6181,1.6197,1.6219,1.6246,1.6284,1.63,1.6319,1.6325,1.6326,1.6327,1.6327,1.6326,1.6328,1.6323,1.6323,1.6324,1.6324,1.6324,0,1.5979,1.6,1.6019,1.605,1.6068,1.6084,1.6109,1.6123,1.6143,1.6167,1.6187,1.6214,1.6237,1.6265,1.629,1.63,1.6308,1.6305,1.6305,1.6309,1.6318,1.6315,1.6298,1.6298,1.6298,1.6298,1.6298,1.6298,1.5972,1.599,1.6008,1.6036,1.6057,1.608,1.6093,1.6113,1.6132,1.6162,1.6181,1.62,1.6226,1.6254,1.6276,1.6284,1.6293,1.6288,1.6298,1.6306,1.6308,1.631,1.6307,1.6289,1.6289,1.6287,1.6287,1.6287]}]]